Location: Newark
(45.8378°N, 5.5389°E)
Time: 19:07:43
(UTC+00:00)

YUBILEINY - Pass Details

Date: 15 December 2019
Orbit: 1478 x 1509 km, 82.5° (Epoch: 28 January)

Event Time Altitude Azimuth Distance (km) Brightness Sun altitude
Rises 05:24:11 0° 356° (N) 4,611 ? -17.9°
Reaches altitude 10° 05:28:18 10° 14° (NNE) 3,627 ? -17.2°
Maximum altitude 05:34:09 19° 57° (ENE) 2,962 ? -16.2°
Drops below altitude 10° 05:39:58 10° 99° (E) 3,623 ? -15.2°
Sets 05:44:02 0° 117° (ESE) 4,602 ? -14.6°
